Location: Coors Field
(39.7564°N, 104.9943°W)
Time: 09:21:44
(UTC-07:00)

ISS - Visible Passes

Search period start: 23 February 2017 00:00
Search period end: 05 March 2017 00:00
Orbit: 399 x 408 km, 51.6° (Epoch: 24 February)

Date Brightness Start Highest point End Pass type
(mag) Time Alt. Az. Time Alt. Az. Time Alt. Az.
27 Feb -0.1 05:47:13 10° SSE 05:48:39 12° SE 05:50:05 10° ESE visible
01 Mar -1.4 05:36:47 10° SSW 05:39:41 29° SE 05:42:35 10° ENE visible
02 Mar -0.5 04:45:17 10° SSE 04:47:15 15° SE 04:49:16 10° E visible
03 Mar -3.2 05:28:08 15° SW 05:30:47 77° SE 05:34:04 10° NE visible
04 Mar -2.1 04:38:07 36° SE 04:38:14 36° SE 04:41:18 10° ENE visible
